[[{"header":{"parameterUnit":"m.s-1","parameterCategory":1,"la1":30.2991,"la2":30.254,"lo1":-89.0895,"lo2":-89.0444,"dy":0.0017,"dx":0.0017,"nx":28,"ny":28,"refTime":"2025-07-29T21:00:00:Z","depth":0,"parameterNumber":2,"parameterNumberName":"U-component_of_WINDS"},"data":[0,0,0,0,0,0,0,0,0,0,0,0,0,0,0,0,0,0,0,0,0,0,0,0,0,0,0,0,0,0,0,0,0,0,0,0,0,0,0,0,0,0,0,0,0,0,0,0,0,0,0,0,0,0,0,0,0,0,1.2905,1.2906,0,1.301,1.3011,1.3013,1.3054,1.3054,1.3054,1.3053,1.3165,1.3168,1.3171,0,0,0,0,0,0,0,0,0,0,0,0,0,1.2743,1.2746,1.2905,1.2906,1.2907,1.301,1.3011,1.3013,1.3054,1.3054,1.3054,1.3053,1.3164,1.3168,1.3171,0,0,0,0,0,0,0,0,0,0,0,0,0,1.2827,1.2747,1.2904,1.294,1.2944,1.301,1.3011,1.3013,1.3054,1.3054,1.3053,1.3053,1.3162,1.3167,1.3172,1.321,0,0,1.3187,1.3189,0,0,0,0,0,0,0,0,1.2823,1.2833,1.2934,1.2938,1.2943,1.3019,1.2995,1.3079,1.3054,1.3013,1.3053,1.3053,1.3117,1.3125,1.3146,1.3216,1.322,1.3187,1.319,1.3192,1.3194,0,0,0,0,0,0,0,1.2817,1.2829,1.2946,1.2935,1.2941,1.2952,1.2964,1.3012,1.3066,1.3016,1.302,1.3031,1.3119,1.3141,1.3149,1.3222,1.3187,1.3191,1.3194,1.3196,1.333,1.3331,0,0,0,0,0,0,1.2804,1.2824,1.2943,1.295,1.288,1.2956,1.2968,1.2995,1.3065,1.3076,1.3032,1.3033,1.3133,1.3143,1.3153,1.3203,1.3192,1.3197,1.32,1.3329,1.333,1.3331,0,0,0,0,0,0,1.2801,1.2815,1.2939,1.2888,1.2904,1.2959,1.2988,1.2997,1.3019,1.3077,1.3087,1.3044,1.3133,1.3146,1.3196,1.3208,1.3199,1.3203,1.3329,1.333,1.333,1.3304,0,0,0,0,0,0,1.2796,1.2813,1.2827,1.2888,1.2907,1.2978,1.2989,1.2999,1.3027,1.303,1.3091,1.3101,1.3134,1.3188,1.3201,1.3214,1.3207,1.3328,1.3329,1.333,1.3304,1.3303,1.3303,0,0,0,0,0,1.279,1.2816,1.2828,1.2842,1.2925,1.2979,1.299,1.3026,1.3028,1.3043,1.308,1.3099,1.3205,1.3193,1.3207,1.3223,1.3327,1.3329,1.333,1.3304,1.3303,1.3303,0,0,0,0,0,0,1.2756,1.2824,1.2838,1.2884,1.2925,1.2986,1.3006,1.3025,1.3067,1.3068,1.3113,1.3126,1.3172,1.3203,1.3189,1.3264,1.3267,1.3272,1.3243,1.3243,1.3243,1.3234,1.3211,0,0,0,0,0,1.2753,1.279,1.2848,1.2883,1.2903,1.2951,1.2976,1.3,1.3045,1.3063,1.3104,1.3148,1.3192,1.3219,1.3262,1.3308,1.3323,1.3326,1.3326,1.3326,1.3329,1.3357,1.3359,1.3336,1.3336,1.3335,0,0,1.2749,1.2791,1.2812,1.2878,1.2912,1.2951,1.2965,1.3005,1.3034,1.307,1.3119,1.315,1.3203,1.3251,1.3275,1.3278,1.3339,1.3327,1.3327,1.333,1.3359,1.3361,1.3363,1.3337,1.3336,1.3336,0,0,1.2761,1.2796,1.2829,1.2864,1.2916,1.2948,1.2956,1.3014,1.3037,1.3086,1.3114,1.315,1.3223,1.326,1.3288,1.3315,1.3334,1.3328,1.3327,1.3354,1.3356,1.3358,1.3368,1.3371,1.3331,1.3331,1.3331,0,1.2749,1.2806,1.2844,1.2882,1.2911,1.2944,1.2979,1.3012,1.3076,1.3095,1.3098,1.3191,1.3229,1.3287,1.3293,1.3315,1.3326,1.3321,1.3352,1.3355,1.3357,1.3367,1.3371,1.333,1.333,1.333,1.333,0,1.279,1.283,1.285,1.2911,1.2942,1.2978,1.3023,1.305,1.3073,1.3105,1.3156,1.3202,1.3255,1.3271,1.3293,1.3333,1.3333,1.3343,1.3347,1.3357,1.3368,1.3372,1.3328,1.3329,1.3329,1.3329,0,0,1.2782,1.2863,1.287,1.2899,1.296,1.2992,1.3031,1.3082,1.3105,1.3148,1.3183,1.3245,1.3255,1.3287,1.3314,1.3337,1.3356,1.3345,1.3347,1.3346,1.3404,1.3395,1.3399,1.337,1.3371,1.3371,1.3399,0,1.2802,1.2871,1.2907,1.2961,1.2999,1.3032,1.3066,1.3108,1.314,1.3177,1.3213,1.3256,1.3266,1.3285,1.331,1.3349,1.3369,1.3347,1.3403,1.3405,1.3389,1.3405,1.3396,1.342,1.3404,1.3404,1.3405,0,1.2834,1.2876,1.2935,1.2992,1.301,1.3039,1.309,1.3125,1.3174,1.3196,1.3231,1.3258,1.3302,1.3303,1.3364,1.3349,1.3374,1.3397,1.3399,1.3405,1.3405,1.3412,1.3429,1.3432,1.3412,1.3411,1.3411,0,1.2823,1.2895,1.2939,1.2962,1.3031,1.3051,1.3081,1.3129,1.3158,1.3203,1.3222,1.3272,1.3299,1.3338,1.3377,1.3374,1.3435,1.344,1.3455,1.3454,1.3466,1.3465,1.3487,1.3483,1.3483,1.3482,1.3482,0,1.2841,1.2875,1.2935,1.2962,1.3003,1.3044,1.3083,1.3116,1.3159,1.3194,1.3226,1.3259,1.3309,1.3349,1.3381,1.3427,1.3439,1.3459,1.3467,1.3456,1.3453,1.3473,1.3472,1.3483,1.3483,1.3483,1.3483,0,1.2835,1.2876,1.2927,1.2988,1.3004,1.3031,1.3083,1.3112,1.3145,1.319,1.3203,1.3255,1.3303,1.3347,1.3411,1.3433,1.348,1.349,1.3463,1.3468,1.3481,1.3479,1.3517,1.3524,1.3514,1.3514,1.3514,0,1.2844,1.2871,1.2935,1.296,1.2989,1.303,1.306,1.3103,1.3132,1.3191,1.3213,1.3263,1.3305,1.3381,1.3426,1.3476,1.3487,1.3497,1.3495,1.3484,1.3488,1.3486,1.3489,1.3497,1.3497,1.3496,1.3496,0,1.2856,1.2875,1.2916,1.2965,1.2999,1.304,1.3081,1.3101,1.3152,1.3184,1.3233,1.3266,1.3331,1.3382,1.3436,1.3469,1.3491,1.3497,1.3503,1.3492,1.3475,1.3485,1.3462,1.3496,1.3496,1.3496,1.3496,1.3496,1.2858,1.2884,1.2933,1.2978,1.3014,1.3052,1.3082,1.312,1.3161,1.3217,1.324,1.329,1.3341,1.3416,1.3448,1.3489,1.3494,1.3503,1.3505,1.3507,1.3505,1.3469,1.3499,1.35,1.35,1.35,1.35,0,1.2871,1.2905,1.2946,1.3003,1.3039,1.3057,1.3104,1.3133,1.3177,1.3221,1.3262,1.3319,1.3368,1.3417,1.3469,1.3493,1.3504,1.3505,1.3504,1.3511,1.3498,1.3487,1.3494,1.3494,1.3494,1.3494,1.3494,1.3494,1.2883,1.2928,1.2954,1.3018,1.3051,1.31,1.3126,1.3162,1.3198,1.326,1.33,1.3331,1.3378,1.3434,1.348,1.3493,1.3511,1.3509,1.3525,1.3512,1.3512,1.3512,1.3502,1.3512,1.3512,1.3535,1.3535,1.3535]},{"header":{"parameterUnit":"m.s-1","parameterCategory":1,"la1":30.2991,"la2":30.254,"lo1":-89.0895,"lo2":-89.0444,"dy":0.0017,"dx":0.0017,"nx":28,"ny":28,"refTime":"2025-07-29T21:00:00:Z","depth":0,"parameterNumber":3,"parameterNumberName":"V-component_of_WINDS"},"data":[0,0,0,0,0,0,0,0,0,0,0,0,0,0,0,0,0,0,0,0,0,0,0,0,0,0,0,0,0,0,0,0,0,0,0,0,0,0,0,0,0,0,0,0,0,0,0,0,0,0,0,0,0,0,0,0,0,0,4.7102,4.7101,0,4.7001,4.7,4.6999,4.6961,4.6961,4.6962,4.6962,4.6848,4.6845,4.6842,0,0,0,0,0,0,0,0,0,0,0,0,0,4.7253,4.725,4.7102,4.7101,4.71,4.7002,4.7,4.6999,4.6961,4.6961,4.6962,4.6962,4.6849,4.6846,4.6842,0,0,0,0,0,0,0,0,0,0,0,0,0,4.7173,4.7249,4.7102,4.7069,4.7065,4.7002,4.7,4.6998,4.6961,4.6961,4.6962,4.6962,4.6851,4.6846,4.6841,4.68,0,0,4.6826,4.6823,0,0,0,0,0,0,0,0,4.7178,4.7168,4.7075,4.7072,4.7067,4.6995,4.7012,4.6931,4.6961,4.7,4.6962,4.6963,4.6896,4.6887,4.6867,4.6795,4.679,4.6825,4.6822,4.682,4.6819,0,0,0,0,0,0,0,4.7183,4.7172,4.7062,4.7074,4.7069,4.7056,4.7046,4.6996,4.6946,4.6997,4.6994,4.6983,4.6894,4.6872,4.6864,4.6788,4.6825,4.6821,4.6818,4.6816,4.6677,4.6676,0,0,0,0,0,0,4.7196,4.7177,4.7065,4.7059,4.7125,4.7053,4.7041,4.7017,4.6947,4.6937,4.6983,4.6982,4.688,4.687,4.686,4.6807,4.682,4.6815,4.6812,4.6678,4.6677,4.6676,0,0,0,0,0,0,4.7199,4.7186,4.7069,4.7117,4.7101,4.705,4.7023,4.7015,4.6993,4.6936,4.6926,4.697,4.688,4.6867,4.6816,4.6803,4.6813,4.6809,4.6678,4.6677,4.6677,4.6702,0,0,0,0,0,0,4.7204,4.7188,4.7173,4.7117,4.7099,4.703,4.7023,4.7013,4.6986,4.6983,4.6922,4.6912,4.6879,4.6824,4.6811,4.6796,4.6805,4.6679,4.6678,4.6677,4.6702,4.6702,4.6702,0,0,0,0,0,4.7209,4.7182,4.7173,4.716,4.7081,4.7029,4.7018,4.6985,4.6985,4.6969,4.6933,4.6914,4.6807,4.6819,4.6804,4.6788,4.668,4.6678,4.6677,4.6702,4.6702,4.6702,0,0,0,0,0,0,4.7234,4.7174,4.7163,4.7118,4.708,4.7023,4.7002,4.6986,4.6943,4.6943,4.6899,4.6886,4.6838,4.6807,4.6822,4.6744,4.6742,4.6737,4.6766,4.6766,4.6766,4.6773,4.68,0,0,0,0,0,4.7235,4.7202,4.715,4.7114,4.7096,4.7053,4.7029,4.7007,4.6964,4.6946,4.6906,4.6862,4.6818,4.679,4.6747,4.6698,4.6683,4.6679,4.6679,4.668,4.6676,4.6648,4.6645,4.6671,4.6671,4.6671,0,0,4.7235,4.7198,4.7179,4.7119,4.7086,4.705,4.7039,4.7,4.6972,4.6939,4.689,4.6859,4.6807,4.6757,4.6733,4.673,4.6666,4.6678,4.6678,4.6674,4.6646,4.6643,4.6641,4.667,4.667,4.667,0,0,4.7217,4.7187,4.7155,4.7123,4.7076,4.7048,4.704,4.6987,4.6966,4.6917,4.6891,4.6855,4.6781,4.6746,4.6718,4.6689,4.667,4.6676,4.6675,4.6648,4.6646,4.6644,4.6633,4.663,4.6672,4.6672,4.6673,0,4.7222,4.717,4.7139,4.7103,4.7077,4.705,4.7015,4.6985,4.6925,4.6906,4.6904,4.6813,4.6775,4.6717,4.6711,4.6689,4.6677,4.6682,4.665,4.6647,4.6645,4.6634,4.663,4.6674,4.6673,4.6673,4.6673,0,4.7178,4.7142,4.7121,4.7069,4.704,4.7005,4.6966,4.694,4.6921,4.6892,4.6842,4.6797,4.6745,4.6729,4.6708,4.6668,4.6668,4.6659,4.6655,4.6644,4.6633,4.6629,4.6675,4.6675,4.6674,4.6674,0,0,4.7171,4.7104,4.7097,4.7073,4.702,4.699,4.6953,4.6906,4.6884,4.6843,4.681,4.675,4.6742,4.671,4.6685,4.6661,4.6641,4.6655,4.6653,4.6654,4.6594,4.6601,4.6597,4.6629,4.6628,4.6627,4.6598,0,4.7146,4.7083,4.7055,4.7003,4.6969,4.6944,4.6911,4.6874,4.6846,4.681,4.6778,4.6736,4.6729,4.671,4.6686,4.6649,4.6629,4.6651,4.6595,4.6594,4.6609,4.6591,4.6598,4.6572,4.6594,4.6593,4.6592,0,4.7107,4.7072,4.7018,4.6971,4.6955,4.6927,4.6882,4.6849,4.6805,4.6787,4.6753,4.673,4.6688,4.6689,4.6629,4.6645,4.6621,4.6599,4.6597,4.659,4.6592,4.6583,4.6563,4.656,4.6585,4.6586,4.6586,0,4.7108,4.7045,4.7006,4.6986,4.6929,4.691,4.6885,4.6842,4.6816,4.6776,4.6758,4.6712,4.6686,4.665,4.6614,4.6618,4.6557,4.6555,4.6539,4.654,4.6526,4.6527,4.6502,4.6512,4.6512,4.6512,4.6512,0,4.7082,4.705,4.7006,4.6981,4.6944,4.6911,4.6874,4.6847,4.6809,4.6777,4.675,4.672,4.6675,4.6638,4.6609,4.6564,4.6552,4.6534,4.6527,4.6536,4.6539,4.6519,4.6519,4.6511,4.6511,4.6511,4.6511,0,4.7075,4.7045,4.7,4.6951,4.6938,4.6913,4.687,4.6844,4.6816,4.6776,4.6764,4.6719,4.6674,4.6635,4.6575,4.6555,4.6509,4.65,4.6525,4.6521,4.6507,4.6509,4.6468,4.646,4.6476,4.6475,4.6475,0,4.7061,4.7037,4.6987,4.6966,4.6942,4.6907,4.6882,4.6848,4.6822,4.6772,4.6751,4.6706,4.6667,4.6597,4.6556,4.651,4.6499,4.6488,4.6492,4.6503,4.6499,4.6501,4.6498,4.6488,4.6488,4.6488,4.6488,0,4.7038,4.7025,4.6991,4.6952,4.6924,4.689,4.6855,4.6838,4.6798,4.6769,4.6726,4.6697,4.6638,4.6592,4.6542,4.6512,4.6492,4.6488,4.6481,4.649,4.6506,4.6497,4.6524,4.6488,4.6488,4.6488,4.6488,4.6488,4.7027,4.7004,4.6967,4.693,4.6902,4.6871,4.6844,4.6815,4.6779,4.6731,4.6713,4.6668,4.6624,4.6556,4.6527,4.6489,4.6486,4.6477,4.6474,4.6473,4.6474,4.6513,4.648,4.648,4.648,4.648,4.648,0,4.7003,4.6978,4.6945,4.69,4.6871,4.6859,4.6821,4.6796,4.6758,4.6722,4.6686,4.6636,4.6592,4.655,4.6503,4.6481,4.6471,4.647,4.647,4.6464,4.648,4.649,4.6479,4.6479,4.6479,4.6479,4.6479,4.6479,4.6987,4.6949,4.6931,4.6878,4.6852,4.6812,4.6791,4.6761,4.6732,4.6678,4.6644,4.6618,4.6578,4.6529,4.6487,4.6476,4.6459,4.6461,4.6447,4.6462,4.6463,4.6463,4.6472,4.6458,4.6458,4.6433,4.6433,4.6433]}]]